| time (UTC) | temp C | wind direction | speed KPH | gust KPH | rain 1hr cm | rain 24hr cm | rain mn cm | humidity % | barometer mb |
| 20260505171406 | 13 | 120 | 9.7 | 14.5 | 0.00 | 0.00 | 0.00 | 82 | 1010.6 |
| 20260505170902 | 13 | 241 | 8.0 | 11.3 | 0.00 | 0.00 | 0.00 | 85 | 1010.6 |
| 20260505170359 | 13 | 156 | 8.0 | 11.3 | 0.00 | 0.00 | 0.00 | 86 | 1010.8 |
| 20260505165854 | 13 | 226 | 17.7 | 25.7 | 0.00 | 0.00 | 0.00 | 82 | 1010.8 |
| 20260505165350 | 14 | 175 | 11.3 | 14.5 | 0.00 | 0.00 | 0.00 | 81 | 1011.3 |
| 20260505164846 | 15 | 169 | 4.8 | 9.7 | 0.00 | 0.00 | 0.00 | 80 | 1011.2 |
| 20260505164343 | 15 | 173 | 14.5 | 17.7 | 0.00 | 0.00 | 0.00 | 80 | 1011.3 |
| 20260505163841 | 15 | 195 | 8.0 | 12.9 | 0.00 | 0.00 | 0.00 | 79 | 1011.4 |
| 20260505163340 | 15 | 188 | 8.0 | 11.3 | 0.00 | 0.00 | 0.00 | 79 | 1011.3 |
| 20260505162838 | 15 | 201 | 14.5 | 24.1 | 0.00 | 0.00 | 0.00 | 78 | 1011.5 |
| 20260505162334 | 15 | 223 | 8.0 | 12.9 | 0.00 | 0.00 | 0.00 | 79 | 1011.2 |
| 20260505161831 | 15 | 215 | 14.5 | 17.7 | 0.00 | 0.00 | 0.00 | 79 | 1011.3 |
| 20260505161328 | 15 | 219 | 14.5 | 16.1 | 0.00 | 0.00 | 0.00 | 79 | 1011.1 |
| 20260505160825 | 14 | 252 | 1.6 | 3.2 | 0.00 | 0.00 | 0.00 | 82 | 1011.3 |
| 20260505160323 | 13 | 152 | 9.7 | 14.5 | 0.00 | 0.00 | 0.00 | 82 | 1011.2 |
| 20260505153302 | 14 | 233 | 9.7 | 11.3 | 0.00 | 0.00 | 0.00 | 81 | 1011.4 |
| 20260505152800 | 14 | 172 | 8.0 | 9.7 | 0.00 | 0.00 | 0.00 | 82 | 1011.3 |
| 20260505152256 | 14 | 181 | 8.0 | 9.7 | 0.00 | 0.00 | 0.00 | 80 | 1011.5 |
| 20260505151755 | 14 | 194 | 14.5 | 20.9 | 0.00 | 0.00 | 0.00 | 79 | 1011.5 |
| 20260505151253 | 14 | 158 | 14.5 | 25.7 | 0.00 | 0.00 | 0.00 | 79 | 1011.4 |
| 20260505150750 | 15 | 145 | 12.9 | 16.1 | 0.00 | 0.00 | 0.00 | 79 | 1011.7 |
| 20260505150248 | 15 | 217 | 11.3 | 14.5 | 0.00 | 0.00 | 0.00 | 80 | 1011.5 |
| 20260505140217 | 15 | 137 | 9.7 | 12.9 | 0.00 | 0.00 | 0.00 | 74 | 1011.6 |
| 20260505130141 | 13 | 151 | 3.2 | 4.8 | 0.00 | 0.00 | 0.00 | 80 | 1011.7 |
| 20260505124631 | 13 | 258 | 4.8 | 4.8 | 0.00 | 0.00 | 0.00 | 79 | 1011.7 |
| 20260505124127 | 13 | 55 | 0.0 | 0.0 | 0.00 | 0.00 | 0.00 | 81 | 1011.7 |
| 20260505123623 | 12 | 243 | 4.8 | 4.8 | 0.00 | 0.00 | 0.00 | 80 | 1011.7 |
| 20260505123120 | 12 | 268 | 4.8 | 4.8 | 0.00 | 0.00 | 0.00 | 81 | 1011.9 |
| 20260505122617 | 12 | 204 | 8.0 | 9.7 | 0.00 | 0.00 | 0.00 | 81 | 1011.7 |
| 20260505122114 | 12 | 179 | 3.2 | 3.2 | 0.00 | 0.00 | 0.00 | 82 | 1011.7 |
| 20260505121610 | 12 | 158 | 4.8 | 9.7 | 0.00 | 0.00 | 0.00 | 81 | 1011.8 |
| 20260505121107 | 12 | 119 | 4.8 | 8.0 | 0.00 | 0.00 | 0.00 | 82 | 1011.8 |
| 20260505120604 | 12 | 199 | 6.4 | 8.0 | 0.00 | 0.00 | 0.00 | 81 | 1011.7 |
| 20260505120100 | 12 | 183 | 3.2 | 4.8 | 0.00 | 0.00 | 0.00 | 83 | 1011.7 |
| 20260505115554 | 12 | 280 | 1.6 | 1.6 | 0.00 | 0.00 | 0.00 | 83 | 1011.7 |
| 20260505115052 | 11 | 171 | 6.4 | 8.0 | 0.00 | 0.00 | 0.00 | 83 | 1011.7 |
| 20260505114549 | 11 | 199 | 12.9 | 16.1 | 0.00 | 0.00 | 0.00 | 83 | 1011.8 |
| 20260505114045 | 11 | 238 | 4.8 | 4.8 | 0.00 | 0.00 | 0.00 | 85 | 1011.7 |
| 20260505113541 | 11 | 176 | 9.7 | 11.3 | 0.00 | 0.00 | 0.00 | 85 | 1011.7 |
| 20260505113038 | 11 | 155 | 6.4 | 9.7 | 0.00 | 0.00 | 0.00 | 85 | 1011.6 |
| 20260505112534 | 11 | 203 | 4.8 | 4.8 | 0.00 | 0.00 | 0.00 | 86 | 1011.5 |
| 20260505112033 | 11 | 182 | 6.4 | 8.0 | 0.00 | 0.00 | 0.00 | 86 | 1011.6 |
| 20260505111526 | 11 | 198 | 1.6 | 4.8 | 0.00 | 0.00 | 0.00 | 87 | 1011.6 |
| 20260505111023 | 10 | 199 | 4.8 | 4.8 | 0.00 | 0.00 | 0.00 | 87 | 1011.6 |
| 20260505110519 | 10 | 280 | 3.2 | 3.2 | 0.00 | 0.00 | 0.00 | 87 | 1011.8 |
| 20260505101951 | 8 | 185 | 3.2 | 3.2 | 0.00 | 0.00 | 0.00 | 93 | 1011.7 |
| 20260505101449 | 8 | 331 | 1.6 | 3.2 | 0.00 | 0.00 | 0.00 | 94 | 1011.5 |
| 20260505100946 | 8 | 323 | 0.0 | 0.0 | 0.00 | 0.00 | 0.00 | 94 | 1011.5 |
| 20260505100443 | 8 | 191 | 1.6 | 1.6 | 0.00 | 0.00 | 0.00 | 94 | 1011.5 |
| 20260505095939 | 8 | 205 | 0.0 | 1.6 | 0.00 | 0.00 | 0.00 | 94 | 1011.4 |
| 20260505095436 | 8 | 150 | 0.0 | 1.6 | 0.00 | 0.00 | 0.00 | 94 | 1011.3 |
| 20260505094932 | 8 | 206 | 1.6 | 3.2 | 0.00 | 0.00 | 0.00 | 94 | 1011.5 |
| 20260505094429 | 8 | 231 | 3.2 | 4.8 | 0.00 | 0.00 | 0.00 | 94 | 1011.2 |
| 20260505093925 | 8 | 154 | 1.6 | 1.6 | 0.00 | 0.00 | 0.00 | 94 | 1011.3 |
| 20260505093422 | 8 | 211 | 0.0 | 1.6 | 0.00 | 0.00 | 0.00 | 94 | 1011.3 |
| 20260505092919 | 7 | 237 | 1.6 | 3.2 | 0.00 | 0.00 | 0.00 | 94 | 1011.0 |
| 20260505092417 | 7 | 182 | 3.2 | 4.8 | 0.00 | 0.00 | 0.00 | 94 | 1011.2 |
| 20260505091914 | 7 | 240 | 1.6 | 1.6 | 0.00 | 0.00 | 0.00 | 94 | 1011.3 |
| 20260505091412 | 7 | 208 | 4.8 | 4.8 | 0.00 | 0.00 | 0.00 | 95 | 1011.4 |
| 20260505090910 | 7 | 224 | 0.0 | 1.6 | 0.00 | 0.00 | 0.00 | 94 | 1011.4 |
| 20260505090408 | 7 | 240 | 1.6 | 1.6 | 0.00 | 0.00 | 0.00 | 94 | 1011.5 |
| 20260505085905 | 7 | 191 | 3.2 | 3.2 | 0.00 | 0.00 | 0.00 | 95 | 1011.2 |
| 20260505085403 | 7 | 156 | 0.0 | 1.6 | 0.00 | 0.00 | 0.00 | 95 | 1011.2 |
| 20260505084901 | 7 | 189 | 4.8 | 4.8 | 0.00 | 0.00 | 0.00 | 95 | 1011.2 |
| 20260505084359 | 7 | 134 | 0.0 | 0.0 | 0.00 | 0.00 | 0.00 | 95 | 1011.0 |
| 20260505083856 | 7 | 319 | 0.0 | 0.0 | 0.00 | 0.00 | 0.00 | 95 | 1011.2 |
| 20260505083354 | 7 | 258 | 0.0 | 0.0 | 0.00 | 0.00 | 0.00 | 94 | 1011.3 |
| 20260505082849 | 7 | 214 | 1.6 | 1.6 | 0.00 | 0.00 | 0.00 | 94 | 1011.0 |
| 20260505082346 | 7 | 14 | 0.0 | 0.0 | 0.00 | 0.00 | 0.00 | 94 | 1011.3 |
| 20260505081842 | 7 | 228 | 0.0 | 0.0 | 0.00 | 0.00 | 0.00 | 94 | 1011.2 |
| 20260505081339 | 7 | 173 | 0.0 | 0.0 | 0.00 | 0.00 | 0.00 | 94 | 1011.1 |
| 20260505080836 | 7 | 294 | 0.0 | 0.0 | 0.00 | 0.00 | 0.00 | 93 | 1011.3 |
| 20260505080332 | 8 | 311 | 0.0 | 1.6 | 0.00 | 0.00 | 0.00 | 93 | 1011.1 |
| 20260505075827 | 8 | 211 | 0.0 | 0.0 | 0.00 | 0.00 | 0.00 | 93 | 1011.2 |
| 20260505075325 | 8 | 278 | 0.0 | 0.0 | 0.00 | 0.00 | 0.00 | 93 | 1011.3 |
| 20260505074822 | 8 | 261 | 0.0 | 0.0 | 0.00 | 0.00 | 0.00 | 93 | 1011.0 |
| 20260505074319 | 8 | 305 | 0.0 | 0.0 | 0.00 | 0.00 | 0.00 | 93 | 1011.3 |
| 20260505073816 | 8 | 306 | 0.0 | 0.0 | 0.00 | 0.00 | 0.00 | 93 | 1011.2 |
| 20260505073314 | 7 | 193 | 3.2 | 3.2 | 0.00 | 0.00 | 0.00 | 93 | 1011.1 |
| 20260505072811 | 7 | 245 | 0.0 | 0.0 | 0.00 | 0.00 | 0.00 | 93 | 1011.2 |
| 20260505072307 | 8 | 138 | 0.0 | 0.0 | 0.00 | 0.00 | 0.00 | 93 | 1011.3 |
| 20260505071803 | 8 | 187 | 3.2 | 3.2 | 0.00 | 0.00 | 0.00 | 93 | 1011.3 |
| 20260505071300 | 8 | 36 | 0.0 | 0.0 | 0.00 | 0.00 | 0.00 | 93 | 1011.1 |
| 20260505070758 | 8 | 290 | 0.0 | 0.0 | 0.00 | 0.00 | 0.00 | 92 | 1011.2 |
| 20260505070254 | 8 | 302 | 0.0 | 0.0 | 0.00 | 0.00 | 0.00 | 92 | 1011.1 |
| 20260505065749 | 8 | 220 | 0.0 | 0.0 | 0.00 | 0.00 | 0.00 | 92 | 1011.1 |
| 20260505065246 | 8 | 43 | 0.0 | 0.0 | 0.00 | 0.00 | 0.00 | 92 | 1011.0 |
| 20260505064743 | 8 | 208 | 0.0 | 1.6 | 0.00 | 0.00 | 0.00 | 92 | 1010.8 |
| 20260505064241 | 8 | 349 | 0.0 | 0.0 | 0.00 | 0.00 | 0.00 | 93 | 1010.9 |
| 20260505063738 | 8 | 152 | 0.0 | 0.0 | 0.00 | 0.00 | 0.00 | 93 | 1011.0 |
| 20260505063234 | 8 | 305 | 0.0 | 0.0 | 0.00 | 0.00 | 0.00 | 92 | 1010.9 |
| 20260505062731 | 8 | 200 | 1.6 | 3.2 | 0.00 | 0.00 | 0.00 | 92 | 1010.9 |
| 20260505062229 | 8 | 330 | 0.0 | 0.0 | 0.00 | 0.00 | 0.00 | 93 | 1010.7 |
| 20260505061725 | 8 | 15 | 0.0 | 0.0 | 0.00 | 0.00 | 0.00 | 92 | 1011.1 |
| 20260505061223 | 8 | 124 | 0.0 | 0.0 | 0.00 | 0.00 | 0.00 | 93 | 1010.8 |
| 20260505060720 | 7 | 127 | 0.0 | 0.0 | 0.00 | 0.00 | 0.00 | 93 | 1010.7 |
| 20260505060217 | 7 | 21 | 0.0 | 0.0 | 0.00 | 0.00 | 0.00 | 94 | 1010.9 |
| 20260505055713 | 7 | 294 | 0.0 | 0.0 | 0.00 | 0.00 | 0.00 | 94 | 1010.8 |
| 20260505055209 | 7 | 335 | 0.0 | 0.0 | 0.00 | 0.00 | 0.00 | 95 | 1010.9 |
| 20260505054707 | 7 | 304 | 0.0 | 0.0 | 0.00 | 0.00 | 0.00 | 96 | 1010.9 |
| 20260505054204 | 7 | 261 | 0.0 | 0.0 | 0.00 | 0.00 | 0.00 | 97 | 1010.9 |
| 20260505053702 | 7 | 333 | 0.0 | 0.0 | 0.00 | 0.00 | 0.00 | 97 | 1010.8 |
| 20260505053158 | 6 | 345 | 0.0 | 0.0 | 0.00 | 0.00 | 0.00 | 97 | 1010.8 |
| 20260505052655 | 6 | 329 | 0.0 | 0.0 | 0.00 | 0.00 | 0.00 | 97 | 1010.7 |
| 20260505052153 | 6 | 333 | 0.0 | 0.0 | 0.00 | 0.00 | 0.00 | 97 | 1010.7 |
| 20260505051649 | 6 | 339 | 0.0 | 0.0 | 0.00 | 0.00 | 0.00 | 97 | 1010.8 |
| 20260505051147 | 6 | 341 | 0.0 | 0.0 | 0.00 | 0.00 | 0.00 | 96 | 1010.6 |
| 20260505050645 | 7 | 0 | 0.0 | 0.0 | 0.00 | 0.00 | 0.00 | 95 | 1010.4 |
| 20260505050143 | 7 | 359 | 0.0 | 0.0 | 0.00 | 0.00 | 0.00 | 95 | 1010.6 |
| 20260505041613 | 7 | 328 | 0.0 | 0.0 | 0.00 | 0.00 | 0.00 | 95 | 1010.7 |
| 20260505041110 | 7 | 323 | 0.0 | 0.0 | 0.00 | 0.00 | 0.00 | 94 | 1010.8 |
| 20260505040607 | 7 | 342 | 0.0 | 0.0 | 0.00 | 0.00 | 0.00 | 93 | 1010.5 |
| 20260505040104 | 7 | 237 | 0.0 | 0.0 | 0.00 | 0.00 | 0.00 | 94 | 1010.6 |
| 20260505035601 | 7 | 159 | 0.0 | 0.0 | 0.00 | 0.03 | 0.03 | 95 | 1010.6 |
| 20260505035057 | 7 | 32 | 0.0 | 0.0 | 0.00 | 0.03 | 0.03 | 97 | 1010.6 |
| 20260505034554 | 6 | 134 | 1.6 | 3.2 | 0.00 | 0.03 | 0.03 | 99 | 1010.4 |
| 20260505034050 | 6 | 250 | 0.0 | 0.0 | 0.00 | 0.03 | 0.03 | 98 | 1010.4 |
| 20260505033547 | 6 | 358 | 0.0 | 0.0 | 0.00 | 0.03 | 0.03 | 97 | 1010.4 |
| 20260505033046 | 6 | 35 | 0.0 | 0.0 | 0.00 | 0.03 | 0.03 | 96 | 1010.5 |
| 20260505032544 | 7 | 15 | 0.0 | 0.0 | 0.00 | 0.03 | 0.03 | 96 | 1010.5 |
| 20260505032039 | 7 | 14 | 0.0 | 0.0 | 0.00 | 0.03 | 0.03 | 95 | 1010.6 |
| 20260505031537 | 7 | 15 | 0.0 | 0.0 | 0.00 | 0.03 | 0.03 | 94 | 1010.9 |
| 20260505031033 | 7 | 15 | 0.0 | 0.0 | 0.00 | 0.03 | 0.03 | 94 | 1010.6 |
| 20260505030530 | 7 | 14 | 0.0 | 0.0 | 0.00 | 0.03 | 0.03 | 92 | 1010.7 |
| 20260505030026 | 7 | 14 | 0.0 | 0.0 | 0.00 | 0.03 | 0.03 | 92 | 1010.7 |
| 20260505025522 | 8 | 40 | 0.0 | 0.0 | 0.00 | 0.03 | 0.03 | 91 | 1010.6 |
| 20260505025021 | 8 | 53 | 0.0 | 0.0 | 0.00 | 0.03 | 0.03 | 91 | 1010.7 |
| 20260505024518 | 8 | 23 | 0.0 | 0.0 | 0.00 | 0.03 | 0.03 | 89 | 1010.9 |
| 20260505024015 | 8 | 25 | 0.0 | 0.0 | 0.00 | 0.03 | 0.03 | 89 | 1010.9 |
| 20260505023512 | 8 | 9 | 0.0 | 0.0 | 0.00 | 0.03 | 0.03 | 88 | 1010.7 |
| 20260505023010 | 8 | 10 | 0.0 | 0.0 | 0.00 | 0.03 | 0.03 | 88 | 1010.6 |
| 20260505022507 | 8 | 158 | 0.0 | 0.0 | 0.00 | 0.03 | 0.03 | 87 | 1010.7 |
| 20260505022004 | 8 | 170 | 0.0 | 0.0 | 0.00 | 0.03 | 0.03 | 87 | 1010.7 |
| 20260505021500 | 8 | 151 | 0.0 | 0.0 | 0.00 | 0.03 | 0.03 | 87 | 1010.8 |
| 20260505020956 | 8 | 153 | 0.0 | 0.0 | 0.00 | 0.03 | 0.03 | 87 | 1010.7 |
| 20260505020451 | 8 | 277 | 0.0 | 0.0 | 0.00 | 0.03 | 0.03 | 87 | 1010.7 |
| 20260505015948 | 8 | 129 | 0.0 | 1.6 | 0.00 | 0.03 | 0.03 | 86 | 1010.5 |
| 20260505015446 | 8 | 170 | 0.0 | 1.6 | 0.00 | 0.03 | 0.03 | 86 | 1010.5 |
| 20260505014943 | 8 | 159 | 0.0 | 0.0 | 0.00 | 0.03 | 0.03 | 85 | 1010.6 |
| 20260505014440 | 8 | 170 | 4.8 | 4.8 | 0.00 | 0.03 | 0.03 | 86 | 1010.7 |
| 20260505013937 | 8 | 214 | 0.0 | 1.6 | 0.00 | 0.03 | 0.03 | 87 | 1010.5 |
| 20260505013434 | 9 | 89 | 0.0 | 0.0 | 0.00 | 0.03 | 0.03 | 85 | 1010.4 |
| 20260505012931 | 9 | 75 | 0.0 | 0.0 | 0.00 | 0.03 | 0.03 | 85 | 1010.4 |
| 20260505012429 | 9 | 120 | 1.6 | 1.6 | 0.00 | 0.03 | 0.03 | 84 | 1010.5 |
| 20260505011926 | 9 | 23 | 0.0 | 0.0 | 0.00 | 0.03 | 0.03 | 83 | 1010.3 |
| 20260505011422 | 10 | 205 | 0.0 | 0.0 | 0.00 | 0.03 | 0.03 | 83 | 1010.3 |
| 20260505010919 | 10 | 222 | 0.0 | 0.0 | 0.00 | 0.03 | 0.03 | 82 | 1010.2 |
| 20260505010414 | 10 | 291 | 1.6 | 3.2 | 0.00 | 0.03 | 0.03 | 82 | 1010.1 |
| 20260505005910 | 10 | 101 | 0.0 | 0.0 | 0.00 | 0.03 | 0.03 | 82 | 1010.2 |
| 20260505005408 | 10 | 174 | 1.6 | 3.2 | 0.00 | 0.03 | 0.03 | 81 | 1010.1 |
| 20260505004905 | 10 | 91 | 3.2 | 3.2 | 0.00 | 0.03 | 0.03 | 81 | 1010.0 |
| 20260505004401 | 10 | 106 | 0.0 | 0.0 | 0.00 | 0.03 | 0.03 | 81 | 1009.9 |
| 20260505003859 | 10 | 192 | 0.0 | 0.0 | 0.00 | 0.03 | 0.03 | 81 | 1010.0 |
| 20260505003356 | 10 | 138 | 1.6 | 1.6 | 0.00 | 0.03 | 0.03 | 81 | 1009.9 |
| 20260505002852 | 10 | 46 | 0.0 | 0.0 | 0.00 | 0.03 | 0.03 | 84 | 1009.7 |
| 20260505002349 | 11 | 93 | 0.0 | 0.0 | 0.00 | 0.03 | 0.03 | 82 | 1009.6 |
| 20260505001847 | 11 | 203 | 3.2 | 3.2 | 0.00 | 0.03 | 0.03 | 81 | 1009.7 |
| 20260505001344 | 11 | 172 | 0.0 | 0.0 | 0.00 | 0.03 | 0.03 | 82 | 1009.5 |
| 20260505000841 | 11 | 82 | 1.6 | 3.2 | 0.00 | 0.03 | 0.03 | 84 | 1009.5 |
| 20260505000339 | 11 | 44 | 0.0 | 0.0 | 0.00 | 0.03 | 0.03 | 87 | 1009.1 |
| 20260504235835 | 11 | 120 | 4.8 | 4.8 | 0.00 | 0.03 | 0.03 | 83 | 1009.2 |
| 20260504235332 | 11 | 223 | 0.0 | 0.0 | 0.00 | 0.03 | 0.03 | 83 | 1008.9 |
| 20260504234829 | 11 | 82 | 0.0 | 0.0 | 0.00 | 0.03 | 0.03 | 82 | 1008.9 |
| 20260504234327 | 11 | 85 | 0.0 | 0.0 | 0.00 | 0.03 | 0.03 | 81 | 1008.7 |
| 20260504233823 | 12 | 177 | 0.0 | 0.0 | 0.00 | 0.03 | 0.03 | 79 | 1008.7 |
| 20260504233319 | 12 | 130 | 0.0 | 0.0 | 0.00 | 0.03 | 0.03 | 76 | 1008.8 |
| 20260504232815 | 12 | 233 | 0.0 | 0.0 | 0.00 | 0.03 | 0.03 | 78 | 1008.5 |
| 20260504232313 | 13 | 278 | 0.0 | 0.0 | 0.00 | 0.03 | 0.03 | 76 | 1008.5 |
| 20260504231810 | 13 | 243 | 0.0 | 0.0 | 0.00 | 0.03 | 0.03 | 73 | 1008.5 |
| 20260504231306 | 13 | 190 | 0.0 | 0.0 | 0.00 | 0.03 | 0.03 | 72 | 1008.4 |
| 20260504230802 | 14 | 333 | 0.0 | 0.0 | 0.00 | 0.03 | 0.03 | 71 | 1008.5 |
| 20260504230300 | 14 | 264 | 0.0 | 0.0 | 0.00 | 0.03 | 0.03 | 70 | 1008.3 |
| 20260504225759 | 15 | 227 | 0.0 | 0.0 | 0.00 | 0.03 | 0.03 | 68 | 1008.0 |
| 20260504225254 | 15 | 125 | 0.0 | 0.0 | 0.00 | 0.03 | 0.03 | 69 | 1008.1 |
| 20260504224752 | 15 | 211 | 0.0 | 0.0 | 0.00 | 0.03 | 0.03 | 67 | 1008.0 |
| 20260504224249 | 15 | 213 | 1.6 | 1.6 | 0.00 | 0.03 | 0.03 | 67 | 1008.1 |
| 20260504223745 | 15 | 254 | 0.0 | 0.0 | 0.00 | 0.03 | 0.03 | 68 | 1008.0 |
| 20260504223241 | 15 | 157 | 3.2 | 3.2 | 0.00 | 0.03 | 0.03 | 67 | 1007.9 |
| 20260504222738 | 16 | 190 | 4.8 | 8.0 | 0.00 | 0.03 | 0.03 | 66 | 1007.9 |
| 20260504222235 | 16 | 221 | 1.6 | 1.6 | 0.00 | 0.03 | 0.03 | 66 | 1008.0 |
| 20260504221733 | 16 | 185 | 8.0 | 11.3 | 0.00 | 0.03 | 0.03 | 66 | 1007.9 |
| 20260504221229 | 16 | 286 | 0.0 | 0.0 | 0.00 | 0.03 | 0.03 | 68 | 1008.0 |
| 20260504220726 | 17 | 216 | 4.8 | 4.8 | 0.00 | 0.03 | 0.03 | 64 | 1007.6 |
| 20260504220223 | 17 | 200 | 3.2 | 4.8 | 0.00 | 0.03 | 0.03 | 63 | 1007.6 |
| 20260504215720 | 17 | 3 | 1.6 | 1.6 | 0.00 | 0.03 | 0.03 | 62 | 1007.6 |
| 20260504215217 | 17 | 227 | 3.2 | 3.2 | 0.00 | 0.03 | 0.03 | 62 | 1007.8 |
| 20260504214713 | 17 | 245 | 3.2 | 3.2 | 0.00 | 0.03 | 0.03 | 63 | 1007.6 |
| 20260504214210 | 17 | 281 | 0.0 | 0.0 | 0.00 | 0.03 | 0.03 | 63 | 1007.6 |
| 20260504213706 | 17 | 308 | 8.0 | 9.7 | 0.00 | 0.03 | 0.03 | 62 | 1007.6 |
| 20260504213203 | 17 | 187 | 4.8 | 8.0 | 0.00 | 0.03 | 0.03 | 62 | 1007.7 |
| 20260504212700 | 16 | 309 | 3.2 | 4.8 | 0.00 | 0.03 | 0.03 | 62 | 1007.6 |
| 20260504212156 | 17 | 291 | 0.0 | 1.6 | 0.00 | 0.03 | 0.03 | 64 | 1007.7 |
| 20260504211654 | 17 | 305 | 1.6 | 1.6 | 0.00 | 0.03 | 0.03 | 63 | 1007.7 |
| 20260504211150 | 16 | 273 | 11.3 | 16.1 | 0.00 | 0.03 | 0.03 | 63 | 1007.5 |
| 20260504210648 | 16 | 314 | 4.8 | 8.0 | 0.00 | 0.03 | 0.03 | 63 | 1007.5 |
| 20260504210144 | 16 | 247 | 9.7 | 12.9 | 0.00 | 0.03 | 0.03 | 63 | 1007.5 |
| 20260504205641 | 16 | 245 | 0.0 | 1.6 | 0.00 | 0.03 | 0.03 | 65 | 1007.5 |
| 20260504205138 | 16 | 268 | 3.2 | 3.2 | 0.00 | 0.03 | 0.03 | 65 | 1007.4 |
| 20260504204637 | 16 | 251 | 1.6 | 1.6 | 0.00 | 0.03 | 0.03 | 67 | 1007.5 |
| 20260504204136 | 15 | 308 | 8.0 | 9.7 | 0.00 | 0.03 | 0.03 | 67 | 1007.9 |
| 20260504203634 | 16 | 312 | 14.5 | 17.7 | 0.00 | 0.03 | 0.03 | 64 | 1007.6 |
| 20260504203131 | 16 | 282 | 0.0 | 1.6 | 0.00 | 0.03 | 0.03 | 68 | 1007.5 |
| 20260504202631 | 16 | 310 | 4.8 | 8.0 | 0.00 | 0.03 | 0.03 | 65 | 1007.5 |
| 20260504202129 | 16 | 232 | 6.4 | 8.0 | 0.00 | 0.03 | 0.03 | 65 | 1007.5 |
| 20260504201625 | 16 | 207 | 0.0 | 0.0 | 0.00 | 0.03 | 0.03 | 67 | 1007.4 |
| 20260504201123 | 16 | 322 | 4.8 | 8.0 | 0.00 | 0.03 | 0.03 | 67 | 1007.7 |
| 20260504200620 | 16 | 275 | 0.0 | 0.0 | 0.00 | 0.03 | 0.03 | 66 | 1007.3 |
| 20260504200116 | 16 | 293 | 3.2 | 3.2 | 0.00 | 0.03 | 0.03 | 68 | 1007.3 |
| 20260504195613 | 16 | 206 | 4.8 | 4.8 | 0.00 | 0.03 | 0.03 | 68 | 1007.4 |
| 20260504195109 | 15 | 323 | 4.8 | 8.0 | 0.00 | 0.03 | 0.03 | 68 | 1007.5 |
| 20260504194606 | 15 | 280 | 3.2 | 3.2 | 0.00 | 0.03 | 0.03 | 72 | 1007.5 |
| 20260504194101 | 15 | 256 | 6.4 | 11.3 | 0.00 | 0.03 | 0.03 | 72 | 1007.5 |
| 20260504193558 | 15 | 180 | 3.2 | 3.2 | 0.00 | 0.03 | 0.03 | 74 | 1007.6 |
| 20260504193057 | 13 | 278 | 1.6 | 3.2 | 0.00 | 0.03 | 0.03 | 74 | 1007.9 |
| 20260504192555 | 14 | 237 | 6.4 | 9.7 | 0.00 | 0.03 | 0.03 | 74 | 1007.8 |
| 20260504192052 | 12 | 296 | 3.2 | 3.2 | 0.00 | 0.03 | 0.03 | 79 | 1007.9 |
| 20260504191550 | 12 | 274 | 6.4 | 8.0 | 0.00 | 0.03 | 0.03 | 79 | 1007.8 |
| 20260504191046 | 12 | 257 | 3.2 | 3.2 | 0.00 | 0.03 | 0.03 | 81 | 1008.0 |
| 20260504190542 | 12 | 154 | 4.8 | 4.8 | 0.00 | 0.03 | 0.03 | 82 | 1008.1 |
| 20260504190039 | 12 | 190 | 8.0 | 9.7 | 0.00 | 0.03 | 0.03 | 82 | 1007.9 |
| 20260504185536 | 11 | 201 | 4.8 | 4.8 | 0.00 | 0.03 | 0.03 | 85 | 1007.8 |
| 20260504185032 | 11 | 129 | 1.6 | 3.2 | 0.00 | 0.03 | 0.03 | 83 | 1008.3 |
| 20260504184528 | 11 | 259 | 0.0 | 0.0 | 0.00 | 0.03 | 0.03 | 85 | 1008.5 |
| 20260504184023 | 11 | 189 | 3.2 | 4.8 | 0.00 | 0.03 | 0.03 | 84 | 1008.6 |
| 20260504183521 | 11 | 303 | 1.6 | 1.6 | 0.00 | 0.03 | 0.03 | 82 | 1008.5 |
| 20260504183019 | 11 | 281 | 4.8 | 4.8 | 0.18 | 0.03 | 0.03 | 82 | 1008.5 |
| 20260504182515 | 11 | 317 | 0.0 | 0.0 | 0.18 | 0.03 | 0.03 | 81 | 1008.5 |
| 20260504182013 | 12 | 252 | 4.8 | 4.8 | 0.00 | 0.00 | 0.00 | 79 | 1008.6 |
| 20260504181509 | 12 | 206 | 1.6 | 3.2 | 0.00 | 0.00 | 0.00 | 76 | 1008.4 |
| 20260504181008 | 12 | 246 | 0.0 | 1.6 | 0.00 | 0.00 | 0.00 | 77 | 1008.5 |
| 20260504180507 | 12 | 183 | 4.8 | 4.8 | 0.00 | 0.00 | 0.00 | 74 | 1008.4 |
| 20260504180005 | 12 | 297 | 4.8 | 4.8 | 0.00 | 0.00 | 0.00 | 75 | 1008.3 |
| 20260504175502 | 11 | 252 | 1.6 | 3.2 | 0.00 | 0.00 | 0.00 | 78 | 1008.4 |
| 20260504174959 | 11 | 264 | 1.6 | 1.6 | 0.00 | 0.00 | 0.00 | 76 | 1008.3 |
| 20260504174456 | 11 | 224 | 4.8 | 11.3 | 0.00 | 0.00 | 0.00 | 76 | 1008.1 |
| 20260504173953 | 11 | 220 | 6.4 | 9.7 | 0.00 | 0.00 | 0.00 | 77 | 1008.3 |
| 20260504173450 | 11 | 318 | 6.4 | 9.7 | 0.00 | 0.00 | 0.00 | 74 | 1008.2 |
| 20260504172947 | 11 | 196 | 4.8 | 4.8 | 0.00 | 0.00 | 0.00 | 73 | 1008.3 |
| 20260504172443 | 12 | 300 | 6.4 | 8.0 | 0.00 | 0.00 | 0.00 | 71 | 1008.0 |
| 20260504171940 | 12 | 163 | 3.2 | 3.2 | 0.00 | 0.00 | 0.00 | 74 | 1007.6 |